Theta_e
294 295 296 296 296 296 296 296 296 296 296 296 295 295 295 295 295 295 295 295 295 294 294 295 295 295 295 295 295 295 295 295 295 296 296 296 296 296 297 297 297 298 298 298 299 299 299 299 299 299 299 299 299 299 299 299 299 299 299 299 299 298 298 298 298 297 297 296 296
294 294 295 296 296 296 295 296 296 296 296 295 295 295 295 295 294 294 294 294 294 294 294 294 294 294 294 295 295 295 294 294 295 295 295 295 296 296 296 296 297 297 297 297 298 298 298 298 298 298 298 298 298 298 298 298 298 298 298 298 298 298 298 297 297 297 296 296 296
293 293 293 294 293 294 294 294 294 294 294 294 295 295 295 294 294 294 294 294 294 294 294 294 294 294 294 294 294 294 294 294 294 294 294 294 295 295 295 296 296 296 297 297 297 297 298 298 298 298 298 298 297 297 297 298 298 298 297 297 297 297 297 296 296 296 295 295 294
293 293 293 293 293 293 293 294 293 293 293 294 294 294 294 294 294 293 293 293 293 293 293 293 293 293 293 293 293 293 294 294 294 294 293 294 294 294 294 295 295 295 296 296 296 297 297 297 297 297 297 297 296 297 297 297 297 297 296 297 297 296 296 295 295 295 295 294 293
293 293 293 293 293 293 293 293 292 292 292 293 293 293 293 293 293 292 292 292 292 292 292 292 292 292 292 292 292 292 293 293 294 293 293 293 293 294 294 294 294 295 295 295 296 296 296 296 296 296 296 296 296 296 296 296 296 296 296 296 296 296 296 295 295 295 294 293 292
292 292 293 293 293 293 293 293 292 292 292 292 292 292 292 292 292 291 291 291 291 291 291 292 292 291 291 291 291 291 292 292 292 292 292 292 293 293 293 294 294 294 294 295 295 295 295 295 296 296 296 296 296 296 296 296 295 295 295 295 295 295 295 295 295 294 294 293 291
291 292 292 293 293 293 293 292 292 292 292 291 291 290 290 290 290 290 289 290 290 290 290 291 290 290 290 290 290 291 291 291 291 292 292 292 292 292 292 292 293 293 293 294 294 295 295 294 295 295 295 295 295 294 295 294 294 294 293 293 294 294 294 293 294 294 293 291 290
292 292 292 293 293 293 292 292 292 292 291 291 290 290 290 289 289 289 289 289 289 289 290 290 289 289 289 289 289 290 290 290 290 291 291 291 291 291 291 291 291 292 293 293 294 294 294 294 294 294 294 294 294 293 293 293 292 292 292 291 292 293 293 292 292 292 292 290 289
291 292 292 292 293 292 292 292 291 291 291 291 290 290 290 290 289 289 288 288 289 289 289 288 288 288 288 288 288 288 289 289 289 290 290 291 291 291 291 291 291 292 292 293 293 293 293 293 293 293 293 293 293 292 292 292 290 290 290 290 291 291 291 291 291 291 290 289 288
291 291 292 292 292 292 292 292 292 291 291 291 291 291 291 291 290 289 289 289 289 288 288 287 287 287 287 287 288 288 288 288 288 289 289 290 290 290 290 291 291 291 291 292 292 292 292 292 292 292 292 292 292 292 292 291 290 289 290 291 290 290 290 290 290 289 289 288 287
289 290 291 292 292 292 292 292 292 291 291 291 291 291 291 291 290 289 289 288 287 287 286 286 286 286 287 287 288 288 288 287 287 288 288 289 289 290 290 290 290 290 291 291 291 291 291 291 291 291 291 291 291 291 291 291 290 290 290 291 291 290 290 290 289 289 288 288 287
288 289 290 291 291 292 291 291 291 291 290 290 290 290 290 289 289 289 288 287 287 286 286 286 286 286 286 286 287 287 288 287 287 287 288 288 288 289 289 289 290 290 290 290 291 291 291 291 290 290 290 290 291 291 291 290 290 290 290 290 290 289 289 289 288 288 288 288 287
288 288 288 289 289 290 290 290 290 290 290 290 290 290 289 289 289 289 288 287 287 286 286 285 285 285 285 285 286 286 287 286 286 287 287 287 288 288 288 289 289 289 289 290 290 290 290 290 290 289 289 290 290 290 290 290 289 289 289 288 288 288 287 287 287 287 287 287 286
288 287 287 287 288 288 288 288 289 289 289 289 289 289 289 289 289 288 288 287 286 286 285 285 285 285 285 285 285 285 285 285 286 286 286 287 287 287 287 288 288 288 289 289 289 289 289 289 289 289 289 289 289 289 289 289 289 288 288 287 286 286 286 286 286 286 286 285 285
287 287 286 286 286 286 287 287 288 289 289 289 289 289 289 288 288 288 287 286 285 285 285 284 285 285 285 284 285 285 284 284 285 285 286 286 286 286 287 286 287 287 288 289 289 289 289 289 289 289 288 288 288 288 288 288 288 287 287 286 285 284 284 284 284 284 284 284 283
285 285 285 285 286 286 286 286 287 288 288 289 289 289 289 288 288 287 287 285 285 284 284 283 283 283 283 284 284 283 282 282 283 284 286 286 286 286 286 286 286 287 287 288 288 288 289 289 289 289 288 288 288 288 288 288 287 287 286 285 284 283 283 283 282 282 282 282 282
284 284 285 285 285 285 285 285 286 286 286 287 288 288 288 288 288 287 287 286 285 284 283 282 282 282 282 282 282 281 281 280 281 283 284 285 285 285 286 287 287 287 287 287 287 288 288 288 289 288 288 288 288 288 288 287 287 286 285 284 283 282 282 282 282 281 281 281 281
283 284 284 285 285 285 285 285 285 285 285 285 286 287 287 287 287 287 286 286 284 283 282 281 281 281 280 280 281 281 280 279 279 280 280 281 281 282 282 284 285 286 287 287 287 287 288 288 288 288 288 288 287 287 287 287 287 286 284 283 282 281 281 281 281 280 281 281 280
283 283 283 284 284 284 285 285 285 284 284 284 285 286 286 286 286 285 285 284 284 283 282 281 281 280 280 280 280 281 280 278 278 278 278 278 279 279 279 281 282 284 285 286 286 286 287 287 287 287 287 287 287 287 287 287 286 285 284 283 282 281 281 280 280 280 280 280 280
282 282 283 283 283 283 284 284 284 283 283 283 284 284 285 285 285 284 284 283 284 283 282 281 281 280 280 279 279 280 280 279 277 277 278 278 278 278 279 279 281 282 284 285 285 285 285 285 286 286 286 286 286 286 286 286 286 285 284 283 282 281 280 280 280 280 279 279 279
281 281 281 281 282 282 282 282 282 281 281 282 283 283 284 284 284 284 283 284 283 283 282 282 281 280 280 279 279 279 279 280 278 277 277 278 278 279 279 279 280 281 282 283 283 283 283 283 284 284 284 285 285 285 285 285 285 285 284 283 282 281 280 280 280 280 279 279 279
281 281 280 280 280 280 280 280 280 280 280 280 281 282 282 283 283 283 283 283 283 283 282 282 281 281 280 280 280 279 279 280 278 278 278 278 278 279 280 279 279 279 280 280 281 281 282 282 282 282 282 283 283 284 285 285 285 285 284 283 282 281 280 280 280 281 281 280 280
280 280 280 280 280 281 281 280 279 279 279 280 280 280 281 281 281 282 282 282 283 283 282 282 281 281 281 281 280 280 280 279 279 278 278 278 278 279 279 279 278 278 279 279 279 279 280 280 280 280 280 281 282 283 283 283 283 284 283 282 280 280 280 280 280 280 280 281 280
279 279 279 279 279 279 280 279 279 280 280 279 279 279 279 280 280 280 281 281 282 282 281 281 281 281 282 282 281 281 280 280 279 279 278 278 278 278 278 278 278 278 278 279 280 280 280 280 279 279 280 280 280 280 280 280 280 280 280 280 279 279 279 280 279 279 279 280 281
278 279 279 278 278 278 278 279 279 279 279 279 279 279 279 279 279 280 280 280 281 281 281 281 281 282 282 282 282 281 281 280 279 279 278 278 278 278 278 278 278 278 280 283 286 287 286 285 282 280 278 278 278 278 278 278 278 278 278 278 279 279 279 279 279 278 278 279 281
277 278 278 277 277 278 278 278 278 278 278 278 278 279 279 279 279 279 279 280 280 280 280 281 282 283 283 282 281 281 281 280 279 279 278 278 278 278 278 278 278 279 282 287 289 290 289 289 287 283 278 276 277 277 277 277 277 277 277 277 277 277 277 277 278 277 277 278 279
276 277 278 277 277 277 277 276 276 276 277 277 278 278 278 278 278 278 279 279 280 281 282 283 284 285 285 283 282 281 281 280 279 278 278 277 278 278 278 278 279 281 284 289 290 290 290 290 289 286 282 276 276 276 276 275 275 276 275 275 275 275 275 275 275 276 276 276 275
276 276 277 277 278 277 277 276 276 276 276 276 277 277 277 277 278 278 278 278 279 281 284 285 285 286 286 283 281 280 280 280 279 278 277 277 278 278 278 279 279 282 286 291 291 291 291 291 290 289 285 280 276 275 275 275 275 275 275 274 274 274 274 274 274 274 275 275 275
275 275 276 277 277 277 277 277 277 276 276 276 276 276 276 277 277 277 277 277 278 281 283 285 285 285 284 282 281 280 280 280 279 278 277 277 279 279 278 277 279 284 289 291 291 291 291 291 291 290 288 284 278 275 274 275 275 275 274 273 273 273 273 273 273 273 273 273 274
275 275 275 276 277 277 277 277 277 276 276 275 276 276 277 277 277 277 277 277 278 280 282 283 283 283 283 283 282 281 280 279 279 278 278 278 280 280 280 282 283 286 290 292 292 291 291 291 291 290 289 287 280 276 274 274 274 274 274 273 272 272 272 272 272 272 273 273 274
274 274 275 276 276 276 277 277 276 275 275 276 276 277 277 277 277 276 276 276 277 280 282 281 281 282 283 283 282 281 281 280 279 278 278 279 280 280 280 283 284 287 290 292 292 291 291 291 290 290 289 287 282 277 274 274 273 273 273 272 272 272 272 272 272 272 273 273 274
274 274 274 275 276 276 276 276 275 275 275 276 277 277 278 278 277 276 275 275 277 279 280 281 281 282 283 282 282 282 283 282 280 278 278 278 279 278 278 282 285 287 290 292 292 291 291 291 290 290 288 286 282 277 273 274 273 272 272 272 272 272 272 272 272 272 273 273 274
275 274 274 275 275 276 276 275 275 275 275 276 277 277 278 277 276 275 275 276 276 277 279 281 281 282 283 283 283 283 283 282 280 280 279 279 278 278 279 282 284 288 291 292 292 291 291 291 290 289 288 286 281 276 273 273 273 272 272 272 272 272 272 272 272 272 272 272 272
276 276 276 276 276 275 275 275 275 275 276 276 277 277 278 277 277 276 276 277 277 277 278 279 280 281 282 281 283 283 284 283 280 279 277 277 276 277 279 282 283 287 291 292 292 291 291 291 290 289 288 286 280 276 273 274 273 273 272 272 272 271 271 271 272 272 272 271 271
277 277 277 277 276 276 275 275 275 275 276 276 277 277 277 277 277 277 277 278 277 276 276 276 278 279 281 281 281 283 284 284 280 279 278 276 277 278 280 281 283 287 291 292 291 291 291 290 290 289 287 284 278 275 274 274 273 273 272 272 272 272 272 272 272 271 271 271 271
278 278 278 278 277 277 276 275 275 275 276 276 277 277 277 277 277 277 278 280 278 276 275 276 277 279 280 280 281 283 284 283 281 282 281 279 278 278 280 283 284 287 291 291 291 291 290 290 290 289 286 281 276 274 274 274 273 273 273 273 273 273 273 272 272 272 271 271 271
278 278 278 278 278 277 277 276 275 275 276 276 277 277 277 277 277 277 278 279 277 276 276 276 277 278 279 280 281 282 282 281 281 283 283 282 279 278 279 282 283 286 289 291 291 291 290 290 289 288 284 278 275 274 274 274 273 273 273 273 273 273 272 272 272 272 272 272 273
277 278 278 278 278 277 277 276 276 276 276 276 276 276 276 277 277 277 278 280 277 276 276 275 276 277 278 278 280 281 281 281 282 283 282 281 278 278 278 279 281 285 288 290 291 290 290 290 289 287 283 277 274 274 274 274 273 273 273 273 272 272 272 272 272 272 273 275 278
277 277 277 278 277 277 277 276 276 276 276 276 276 276 276 276 276 277 278 280 277 276 276 275 275 275 276 277 279 280 280 280 283 283 282 281 279 279 279 278 280 284 288 290 290 290 290 290 289 287 284 279 275 274 274 274 273 273 273 272 272 272 272 272 271 272 274 277 283
277 277 277 277 277 277 277 276 276 276 276 276 276 275 275 276 277 278 278 277 276 275 275 275 275 275 276 279 279 279 279 279 281 282 283 282 281 282 283 279 280 283 287 289 290 290 290 290 289 288 285 280 276 275 275 274 273 273 272 272 272 272 272 272 271 271 273 274 280
277 277 277 277 278 277 277 277 277 276 276 276 276 276 276 277 277 277 276 275 275 275 275 275 275 275 277 279 278 278 279 279 279 281 284 283 282 284 284 280 280 282 286 288 290 290 290 290 289 288 285 280 276 275 275 275 274 273 272 272 272 272 272 272 271 271 271 271 273
Wind_Speed
3 2 2 2 3 3 3 3 3 3 3 3 3 3 3 3 3 3 3 2 2 2 2 2 3 3 3 4 4 5 4 4 4 4 5 4 4 4 4 4 4 4 4 4 4 4 4 4 3 3 3 3 3 3 3 2 3 3 4 4 4 4 4 5 5 5 5 5 4
3 3 3 3 3 3 3 3 3 3 3 2 3 3 3 3 3 3 3 2 2 2 2 3 3 4 4 5 5 4 4 4 4 4 4 4 4 4 4 4 4 4 4 4 4 3 3 3 3 3 3 3 3 3 3 2 3 4 5 5 3 3 4 4 5 5 6 5 5
3 3 3 3 3 3 3 3 3 3 3 3 3 3 3 3 3 3 3 3 2 2 2 3 3 4 4 5 4 4 4 4 4 4 4 4 4 4 4 3 4 4 4 4 3 3 3 3 3 3 3 3 3 3 3 3 3 4 4 4 3 3 3 3 4 4 4 4 5
3 3 3 3 3 3 3 3 3 3 3 3 3 3 3 3 3 3 3 3 3 3 3 3 3 3 4 4 4 4 4 4 4 4 4 4 4 4 4 4 4 4 4 4 4 4 3 3 3 3 3 3 3 3 3 3 3 3 3 3 3 3 3 3 3 3 4 4 4
3 2 2 3 3 3 3 3 3 3 3 2 2 3 3 3 2 2 2 3 3 3 3 3 3 3 3 4 4 4 4 4 4 4 3 4 4 4 4 4 4 4 4 4 4 4 4 4 3 3 3 3 3 3 3 3 3 4 3 3 2 2 3 3 3 3 3 4 4
2 2 2 3 3 3 3 3 3 3 3 3 3 3 3 3 2 3 3 3 3 3 3 4 4 4 4 4 4 4 4 4 4 3 3 4 4 4 4 4 4 4 3 4 4 4 3 3 3 3 3 3 3 3 3 3 4 4 4 3 3 2 3 3 3 3 4 5 5
2 2 3 3 3 3 3 3 3 3 3 3 4 4 4 3 3 3 3 3 3 3 3 4 4 4 4 4 4 4 4 3 3 3 4 4 4 4 4 4 4 4 4 4 3 3 3 3 3 3 3 3 3 3 3 3 4 4 5 4 3 3 3 3 3 4 5 6 6
3 3 3 3 4 4 4 4 3 3 3 3 4 4 4 4 4 4 4 3 3 3 3 3 3 4 4 4 4 4 4 4 3 4 4 4 4 4 4 4 4 4 4 4 4 4 4 3 3 3 3 3 3 3 4 4 4 5 5 4 3 3 3 3 3 4 5 7 7
2 3 3 3 4 4 4 4 4 4 4 4 4 4 5 5 5 4 4 3 3 3 3 3 3 4 5 5 4 4 4 4 4 4 4 4 4 4 4 4 4 4 4 4 4 4 4 4 3 3 3 3 3 3 4 5 5 6 6 5 4 3 3 4 4 5 6 7 7
2 2 3 3 4 4 4 4 4 5 5 5 5 5 5 6 5 4 3 3 3 3 3 3 3 4 5 5 5 4 4 3 3 3 4 4 4 4 4 4 4 4 4 4 4 4 4 4 4 4 4 4 4 4 5 5 6 6 5 4 4 5 5 5 5 6 7 7 8
2 2 2 3 3 4 4 4 4 4 4 4 4 4 5 5 5 4 3 3 3 3 3 3 4 4 4 4 4 4 4 3 3 3 4 4 4 4 4 4 4 4 4 4 4 4 4 4 5 5 5 5 5 5 5 6 6 7 6 5 6 7 7 6 6 6 6 7 8
1 2 2 2 3 4 4 4 4 4 4 4 4 4 4 4 4 4 4 4 4 3 3 3 4 4 4 4 4 4 4 3 3 3 4 4 4 4 4 4 4 4 4 4 3 3 4 4 5 6 6 5 4 4 5 6 7 7 7 7 7 7 7 7 6 5 5 7 8
1 1 2 2 3 3 3 4 3 3 4 4 4 4 4 4 4 4 4 4 4 3 3 3 4 4 4 3 3 3 3 3 3 4 4 4 4 4 4 4 4 4 4 4 3 3 4 5 6 6 6 5 5 5 5 6 7 7 7 7 7 7 7 6 6 5 6 7 8
1 1 1 2 2 2 3 3 3 3 4 4 4 4 4 4 4 4 4 4 4 3 3 3 4 4 3 3 3 3 3 3 4 4 4 4 4 4 4 4 4 4 4 4 4 4 4 5 6 6 6 6 6 5 6 6 6 7 7 7 7 7 6 6 6 6 7 8 8
1 1 1 1 2 2 2 3 3 3 4 4 4 4 4 3 4 4 4 4 4 3 3 3 3 3 3 4 4 4 4 4 4 4 4 4 4 4 4 4 4 4 4 4 4 5 5 5 6 6 6 6 6 6 6 6 7 7 7 7 7 6 6 6 6 6 7 7 7
1 1 1 1 2 2 2 2 2 3 3 4 4 4 4 4 4 4 4 4 3 3 3 3 3 3 3 3 4 4 3 3 4 4 4 4 4 4 4 4 4 4 4 4 5 5 5 5 6 6 6 6 6 6 6 7 7 7 7 7 7 6 6 6 6 6 6 7 7
0 0 0 1 2 2 2 2 2 2 3 3 4 4 4 4 4 4 4 4 4 3 3 3 3 3 3 3 3 3 3 3 4 4 4 4 4 4 4 5 5 5 5 5 5 5 5 5 5 6 6 6 7 7 7 7 7 7 7 7 6 6 6 6 6 6 6 7 7
0 0 1 1 2 2 2 2 2 2 2 3 3 3 3 4 4 4 4 4 4 4 4 4 3 3 3 3 3 3 3 4 4 4 3 3 4 4 4 4 4 4 5 5 5 5 6 6 6 6 6 6 7 7 7 7 7 7 7 7 6 6 6 6 6 6 6 7 6
1 1 1 1 2 2 2 2 2 2 2 2 3 3 4 4 4 4 4 4 4 5 5 4 4 3 3 3 3 3 3 3 4 4 3 3 4 4 4 4 4 4 4 5 5 5 6 6 6 6 6 6 7 7 7 7 7 7 7 6 6 6 6 6 5 5 6 6 6
2 2 2 1 2 2 2 1 1 1 2 2 3 4 4 5 5 5 5 5 5 5 5 5 4 4 3 3 3 3 3 3 3 4 3 3 4 4 4 4 4 4 4 5 5 5 5 5 6 6 7 7 7 7 7 7 7 7 6 6 6 6 6 5 5 5 5 5 5
2 2 2 1 1 1 1 1 1 1 2 2 3 4 5 5 6 6 5 5 5 5 5 5 5 4 4 3 3 3 3 2 3 3 4 4 4 4 4 4 4 4 4 4 5 5 5 5 6 6 6 7 7 7 7 7 7 7 6 5 5 5 5 5 5 5 5 5 5
2 2 1 1 1 1 1 1 1 1 2 2 3 4 4 5 5 5 5 5 5 5 5 5 5 5 4 4 4 3 3 2 3 3 3 4 4 3 4 4 4 4 4 4 4 5 5 5 5 5 6 6 7 7 7 7 7 7 6 6 5 5 5 5 4 4 4 4 5
2 1 1 0 0 1 1 1 1 2 2 2 3 3 4 4 4 4 4 4 4 4 4 4 4 4 4 4 4 3 3 3 3 3 3 3 3 3 3 4 4 4 4 4 4 4 5 5 5 5 5 5 6 6 6 6 6 6 6 6 5 5 5 4 4 4 4 3 4
2 1 1 0 1 1 1 1 2 2 2 2 3 3 3 3 3 3 3 4 4 4 4 3 3 3 4 4 4 3 3 3 3 3 3 3 3 3 3 3 4 4 3 3 4 5 5 4 4 5 5 5 5 5 5 5 5 5 5 5 5 5 5 4 5 5 4 4 3
2 2 1 1 1 1 1 1 2 2 2 2 2 2 3 3 3 3 4 4 4 4 3 3 3 3 3 3 3 3 3 3 3 3 3 2 2 2 3 3 3 3 3 4 8 9 9 7 5 4 4 4 4 4 4 4 4 5 5 5 5 4 4 4 5 5 5 5 5
2 2 2 1 1 1 1 1 2 2 2 1 2 2 2 3 3 3 4 4 3 3 3 3 3 3 3 3 2 3 3 3 3 3 3 3 2 2 2 2 2 2 4 7 11 12 12 11 9 7 4 3 3 3 4 3 3 4 4 4 4 4 4 4 4 5 5 6 6
3 3 2 2 2 2 2 1 1 1 1 1 2 2 2 2 3 3 4 4 3 3 3 3 3 4 4 3 3 3 3 3 3 3 3 3 3 3 2 2 2 3 4 9 12 13 13 13 12 9 6 3 3 3 3 3 3 3 4 3 3 3 4 3 4 4 5 5 5
4 3 3 3 3 3 2 2 2 2 2 2 2 2 2 2 3 3 3 3 2 3 3 3 3 3 3 3 3 3 3 3 3 3 3 3 3 2 2 2 2 4 6 10 12 13 13 13 13 11 9 5 3 3 3 3 3 3 3 3 3 3 3 3 3 3 4 4 4
5 4 4 4 4 3 3 2 2 2 2 2 2 2 2 2 3 3 3 2 2 2 3 3 2 2 3 3 3 3 3 3 3 3 2 2 2 1 1 2 3 5 8 11 12 12 13 13 13 12 11 8 5 3 3 3 3 3 3 3 3 3 3 3 3 3 3 3 4
5 5 5 5 5 4 3 3 3 2 2 2 2 2 3 3 3 3 3 2 2 2 2 2 2 2 3 3 3 3 3 3 2 2 2 2 2 1 1 2 3 4 7 12 12 12 13 13 13 13 12 10 7 5 4 3 3 3 3 3 3 3 3 3 3 3 3 3 4
5 6 6 6 5 5 4 3 2 2 2 2 3 3 3 4 3 3 2 2 1 1 1 2 2 3 3 3 3 3 3 3 3 2 2 2 2 1 1 2 2 4 6 11 12 12 13 13 13 13 12 11 8 5 4 4 4 4 3 3 3 3 3 3 3 3 3 3 4
6 6 6 6 6 5 4 3 2 2 2 3 3 4 4 4 3 2 2 1 1 2 2 2 3 3 4 3 3 3 4 4 3 2 2 2 1 1 1 2 2 4 6 11 12 12 12 13 13 13 13 12 9 6 5 5 5 4 4 4 4 4 4 3 3 3 3 4 4
7 7 7 7 7 6 4 3 3 3 3 3 4 4 4 4 3 2 1 1 2 2 2 3 3 4 4 4 4 4 4 4 3 3 3 2 2 1 1 2 2 4 7 11 12 12 13 13 13 13 13 12 9 7 6 5 5 4 4 4 3 3 3 4 4 3 3 3 3
7 7 7 7 7 6 5 4 3 3 3 4 4 4 4 4 3 3 2 2 2 2 2 3 3 4 4 4 4 4 4 4 3 3 2 2 2 1 1 2 2 4 8 11 12 12 13 13 13 13 13 12 8 7 6 6 5 5 4 4 3 2 2 3 3 3 3 3 3
8 8 8 8 7 7 6 5 4 4 4 4 4 4 4 4 4 3 3 3 2 2 1 1 2 2 3 3 3 4 4 4 3 3 3 2 2 2 1 2 3 5 9 12 12 12 13 13 13 13 12 10 7 6 6 6 6 5 5 4 3 3 2 2 2 2 2 3 3
9 9 9 9 8 8 7 7 6 5 5 6 5 5 4 4 3 3 3 3 3 3 2 2 2 2 3 2 3 3 4 4 4 4 4 3 2 2 2 3 3 5 9 12 12 12 12 13 13 13 11 8 5 5 5 6 5 5 5 4 3 3 2 2 2 2 2 2 2
9 9 9 9 9 8 8 8 7 7 7 7 6 5 5 4 3 3 2 3 3 3 3 2 3 3 4 4 3 3 4 4 4 4 4 4 3 3 2 3 3 5 8 12 12 12 13 13 13 12 10 6 5 5 5 5 4 4 4 4 3 2 2 1 2 2 2 2 2
9 9 9 10 9 9 9 8 8 8 8 7 6 5 5 4 4 3 2 3 3 3 3 3 3 4 4 4 4 4 4 4 5 5 5 4 4 3 3 3 3 4 7 11 12 12 13 13 13 12 10 6 5 5 5 4 4 3 3 3 2 2 1 0 0 1 1 2 4
9 9 9 10 10 10 9 9 9 9 8 7 6 5 4 4 4 3 3 3 3 3 3 3 3 3 4 4 4 5 4 4 5 5 5 5 4 4 4 3 3 4 6 10 12 12 13 13 13 13 11 7 5 5 4 4 4 3 3 2 2 1 1 1 0 0 1 2 6
9 9 9 9 10 10 10 10 10 9 8 6 6 5 5 4 4 3 2 2 2 3 3 3 3 3 4 5 5 5 5 4 4 5 6 6 6 6 6 4 3 4 6 9 11 12 13 13 13 13 11 7 5 4 4 4 4 3 3 2 2 2 1 1 1 1 0 0 3
8 8 9 9 10 10 10 10 9 8 7 6 6 6 5 5 4 3 2 2 2 2 3 3 3 4 4 5 5 6 6 5 4 4 5 7 7 7 7 4 4 4 5 7 10 12 13 13 14 14 12 7 5 4 4 4 4 4 3 3 2 2 2 1 1 1 1 1 1
Wind_Direction
17 31 57 76 77 80 83 88 88 86 84 83 86 86 87 89 89 87 83 78 75 72 70 66 65 60 55 47 45 43 39 34 34 38 41 38 29 24 24 27 33 40 48 55 62 67 73 77 82 83 81 78 77 73 66 58 70 75 77 76 74 76 79 82 85 87 86 84 85
19 28 49 70 74 77 80 85 86 86 85 83 85 88 88 89 90 88 83 78 76 75 73 71 64 62 59 55 51 47 42 36 35 37 38 38 31 28 29 33 37 41 47 53 60 69 76 80 86 90 91 88 86 84 78 67 78 83 83 80 79 79 80 83 84 87 88 88 87
25 30 41 53 61 70 78 84 86 86 86 85 84 85 87 88 88 87 83 79 75 73 73 75 67 63 62 59 54 49 44 38 35 35 37 37 33 31 32 36 42 45 48 52 57 65 74 80 88 94 95 95 94 94 92 84 85 87 87 82 81 81 83 84 84 85 86 87 85
28 35 43 56 63 71 80 88 89 89 89 89 86 84 83 84 84 84 81 75 71 70 72 76 72 67 63 62 58 53 47 42 41 39 38 39 36 33 33 37 46 49 50 51 58 66 74 81 86 90 91 92 94 97 99 100 94 90 88 83 82 83 85 85 84 86 88 88 84
29 36 47 60 68 75 80 86 88 89 90 90 89 88 86 85 84 81 76 69 65 64 65 71 74 71 67 64 61 56 49 41 43 42 40 39 37 34 33 37 45 50 53 54 61 68 77 85 90 89 87 86 86 91 98 103 99 95 90 83 78 80 84 84 84 86 88 88 81
27 38 51 65 74 78 81 81 82 83 85 82 83 84 85 82 78 74 72 70 64 59 59 64 68 68 66 64 63 60 53 44 39 39 41 41 38 35 35 38 42 46 52 56 61 68 75 82 92 92 89 84 78 78 84 95 100 98 93 86 78 77 80 84 88 90 91 91 86
27 44 60 72 79 83 85 83 82 82 82 82 81 82 83 80 77 74 72 70 61 56 56 60 58 60 62 62 62 61 57 49 42 41 43 46 40 35 33 35 38 42 46 52 60 67 72 74 84 87 86 83 77 66 62 72 91 97 94 89 81 75 75 77 87 93 94 92 89
31 49 65 80 86 88 89 88 87 86 87 86 86 87 88 86 84 80 75 68 64 62 61 61 59 62 63 63 61 59 56 51 45 42 43 46 42 37 33 36 40 41 43 46 57 67 73 74 77 78 79 78 77 68 64 68 83 90 92 88 80 74 70 72 79 86 89 88 86
36 52 67 81 88 92 93 92 93 95 96 97 98 99 98 96 90 85 81 78 75 73 69 67 66 67 68 66 62 59 54 50 46 44 44 46 44 42 40 43 46 46 45 44 54 66 74 79 76 75 76 79 80 78 76 77 82 86 88 87 82 77 72 71 76 80 83 83 82
38 55 71 86 94 96 97 95 96 98 101 104 105 106 105 101 93 88 86 87 82 76 69 66 65 67 67 66 64 61 56 51 48 47 47 50 49 46 45 48 52 54 52 48 54 64 74 82 82 81 81 83 85 85 84 84 86 87 88 90 89 85 80 77 78 81 83 84 83
31 50 70 90 100 103 102 100 98 99 100 102 101 99 98 98 93 90 88 86 80 73 67 61 62 63 64 64 66 66 63 57 52 52 55 56 54 51 50 50 54 58 59 56 60 68 78 87 90 90 88 87 88 88 88 89 91 91 92 93 92 89 86 82 83 85 88 90 88
22 41 60 81 96 104 107 106 105 103 102 102 100 98 96 96 97 96 91 85 82 76 69 62 65 65 65 63 66 67 66 61 58 61 63 61 58 57 56 55 56 58 61 60 65 75 86 93 95 94 92 89 88 89 90 92 93 93 93 92 90 88 87 84 84 87 91 92 91
16 32 50 72 92 103 110 114 115 113 112 111 107 105 105 104 104 101 97 91 89 85 76 70 70 70 70 69 68 67 65 63 62 65 66 63 62 61 61 59 58 61 62 64 68 78 88 94 95 96 94 91 88 87 89 90 92 92 92 91 88 87 86 85 85 88 90 90 90
6 22 40 67 91 105 116 122 125 126 125 123 120 118 115 112 110 106 102 100 98 93 86 77 75 75 76 78 77 75 72 70 71 71 69 65 64 64 64 61 60 64 68 71 74 80 87 92 93 95 95 92 89 87 86 86 87 88 88 88 87 86 86 85 87 90 91 90 89
4 16 38 75 97 110 121 130 138 139 138 136 135 131 126 122 117 113 109 107 103 97 90 83 79 77 78 80 83 81 79 76 80 82 81 76 73 72 71 67 64 68 75 79 80 82 85 90 92 94 95 94 92 89 86 85 84 83 83 82 83 84 84 83 85 88 91 93 91
359 11 56 94 106 114 122 134 142 146 145 145 143 141 137 133 127 122 119 116 109 101 93 90 88 83 79 81 83 81 79 78 85 91 95 93 90 87 85 81 78 77 81 83 84 85 85 87 90 92 94 94 93 91 88 86 84 82 80 79 80 82 83 84 85 87 90 93 94
344 10 101 110 113 117 122 128 134 141 146 148 149 148 145 143 138 135 131 126 118 109 102 100 99 94 88 83 81 80 80 77 81 88 94 97 94 93 92 92 91 89 88 88 89 89 89 88 89 90 91 92 91 90 88 86 84 82 81 79 80 81 82 85 87 89 91 92 95
198 175 135 123 122 123 123 125 125 130 136 144 151 153 151 147 142 137 133 128 123 118 114 111 106 102 97 92 85 84 86 85 84 85 87 87 85 83 82 84 87 89 91 93 94 95 95 94 93 93 92 92 91 90 89 88 87 86 84 82 81 82 82 83 85 88 92 94 97
178 170 157 142 135 130 126 122 118 118 123 134 142 145 145 141 135 132 129 128 126 124 121 117 111 106 101 99 94 94 95 96 97 95 92 87 83 79 77 75 75 79 85 91 92 94 97 99 100 100 99 98 96 94 93 92 92 90 88 86 84 83 82 82 83 86 91 95 98
171 172 172 165 151 139 128 118 106 100 103 112 126 132 134 133 131 130 131 132 131 127 123 120 116 112 108 105 102 102 103 107 106 104 99 93 88 85 82 80 78 79 81 86 87 89 92 96 102 104 105 106 104 102 99 97 95 94 91 88 85 83 83 83 84 86 89 94 97
173 176 179 178 167 154 138 107 75 72 82 96 113 122 127 130 132 135 138 139 135 129 126 124 123 122 120 116 115 114 116 115 110 109 105 98 95 93 91 88 86 84 85 87 89 91 92 94 101 104 107 110 109 108 107 105 102 100 96 91 86 82 81 83 87 89 91 94 97
175 179 181 185 181 167 135 80 61 68 80 92 105 116 123 129 135 140 142 141 136 132 130 130 130 131 131 129 128 125 122 113 108 106 105 102 100 99 97 95 94 93 93 93 95 95 96 95 98 101 104 109 111 112 113 112 111 107 101 92 85 80 77 77 81 87 91 97 100
169 166 160 158 142 119 108 83 76 80 86 92 101 110 120 129 137 141 141 139 137 137 136 136 137 138 139 138 135 128 121 111 103 98 96 97 100 102 102 101 103 105 106 107 105 102 101 98 98 99 102 107 111 113 114 113 114 111 105 96 86 77 70 63 62 64 70 81 96
150 142 127 95 89 89 96 95 92 94 96 101 108 113 121 128 133 135 135 135 137 139 140 142 143 145 144 142 137 131 124 116 108 100 94 90 97 103 107 109 112 118 124 129 129 124 117 109 104 104 105 107 110 111 111 110 111 110 107 102 92 80 68 53 44 40 39 42 59
134 128 124 112 109 106 106 107 109 111 112 115 115 118 121 127 130 131 132 132 136 139 143 146 151 150 147 142 138 133 128 125 121 115 106 96 98 105 112 117 125 135 144 146 141 136 132 127 121 114 109 109 109 107 104 103 104 106 106 104 97 88 74 55 41 33 29 29 30
132 131 136 138 132 132 131 132 129 127 128 121 118 120 122 126 127 127 128 131 137 142 147 153 157 157 152 140 136 131 129 129 127 124 119 113 111 114 122 132 146 157 160 155 147 143 139 136 132 126 117 107 107 104 100 96 97 98 100 98 94 90 83 70 53 42 36 34 32
141 143 148 147 143 149 153 151 139 132 132 132 130 129 127 123 120 121 124 129 138 148 154 157 161 160 154 138 132 132 132 131 125 121 119 119 122 129 143 158 176 186 175 161 150 146 144 142 141 137 130 111 109 108 108 106 100 96 94 92 90 89 88 86 74 62 52 43 37
154 153 152 148 155 162 164 153 146 149 154 155 150 141 130 118 117 119 122 128 137 147 152 154 160 158 149 132 131 133 135 132 122 115 111 111 121 136 155 177 202 199 183 165 154 150 149 147 148 147 142 128 117 114 116 115 111 103 98 95 94 93 92 92 84 75 66 54 43
160 155 153 157 165 167 166 162 166 169 171 169 158 140 128 123 122 123 123 125 130 138 145 147 150 144 136 130 132 131 131 128 119 108 103 103 117 137 171 203 218 199 182 167 159 156 155 153 154 154 151 140 127 118 119 120 117 113 107 102 102 101 100 96 88 80 73 66 56
161 158 159 164 167 170 173 177 177 173 168 160 149 141 137 135 135 134 133 133 135 137 135 125 128 131 132 134 133 131 130 130 118 110 106 112 129 154 211 223 228 205 184 169 163 160 159 158 157 156 152 142 131 123 120 123 121 119 116 114 112 112 111 108 100 93 85 78 71
163 162 163 166 169 174 179 182 173 162 152 152 152 152 150 150 154 155 153 147 145 132 114 100 119 130 136 137 135 136 138 136 126 120 122 130 149 188 245 246 243 218 191 173 165 163 161 159 157 153 148 141 133 127 124 124 123 123 126 126 126 125 123 120 114 108 102 94 88
166 165 166 169 173 177 180 177 165 154 151 157 161 162 163 165 169 170 164 143 128 125 124 127 135 139 143 143 143 145 147 145 143 144 145 148 162 208 263 267 247 224 198 176 167 164 163 159 155 150 143 136 129 125 122 121 120 121 124 127 130 132 132 128 124 119 114 108 105
170 169 170 173 177 179 179 174 165 158 157 162 167 169 172 175 174 167 152 133 129 139 150 162 157 154 154 154 155 157 158 157 158 158 158 155 155 164 229 250 248 220 197 176 169 166 164 160 155 148 140 131 125 120 117 115 115 115 116 119 125 129 132 133 133 130 128 124 120
175 174 175 178 179 179 178 175 169 163 163 167 174 177 178 178 177 175 169 158 145 146 159 172 170 166 162 158 161 165 168 167 162 159 158 153 139 142 181 228 253 214 191 174 170 168 166 162 157 149 140 129 122 116 113 111 110 111 111 115 117 121 128 134 136 138 138 135 128
178 178 180 182 180 179 177 175 171 169 169 175 181 186 186 185 184 183 177 162 141 131 138 170 176 169 161 155 162 169 173 169 165 162 160 145 131 140 179 218 246 209 188 172 172 170 167 164 158 150 140 128 121 115 113 113 112 114 115 117 118 122 126 131 136 140 142 140 133
181 181 182 183 182 180 178 176 174 174 177 182 186 189 192 193 193 190 176 152 131 123 125 143 157 162 162 160 169 174 175 171 167 165 162 149 140 152 182 209 239 209 188 172 173 171 169 165 158 149 138 124 118 114 114 114 116 117 119 122 127 134 140 140 143 144 144 144 139
184 183 183 182 182 181 180 177 176 179 184 189 189 190 191 194 197 195 179 153 136 132 135 141 156 166 173 174 178 180 179 172 167 165 163 159 155 163 185 210 242 215 190 174 174 172 170 166 158 148 137 122 119 116 115 115 117 119 123 128 138 148 156 154 149 148 150 153 150
185 183 182 181 182 182 181 179 180 184 188 191 191 191 191 191 193 194 187 171 154 149 149 148 162 173 179 179 180 181 181 180 172 167 165 169 168 171 181 206 244 225 196 177 176 174 171 167 157 149 140 129 127 124 122 121 122 126 133 140 150 164 184 198 145 143 150 161 160
185 183 182 182 182 182 182 182 185 187 188 188 189 188 189 190 192 192 188 175 160 155 155 156 165 173 176 175 174 176 182 192 181 174 171 177 180 178 178 191 232 229 204 183 179 176 173 168 160 153 146 138 134 131 129 128 131 136 143 150 160 178 213 282 358 70 148 175 163
184 183 183 183 183 183 184 186 189 189 188 185 185 187 189 192 191 186 177 164 153 152 156 159 160 162 164 167 166 170 178 194 197 186 179 181 185 184 181 183 215 226 212 192 184 180 177 172 165 159 153 141 139 136 134 133 138 145 155 167 171 182 202 256 322 4 7 285 167
183 183 185 186 185 185 186 188 189 189 186 183 185 186 187 187 180 171 161 156 156 157 158 158 153 152 155 163 161 165 171 183 200 199 190 183 187 186 183 180 203 223 224 207 192 186 182 178 171 165 159 148 144 141 140 139 147 158 172 186 185 184 187 206 260 315 331 327 301